Simultaneous Nadir Overpasses (SNOs) Predictions

Prediction of SNOs between GOES-15 and TERRA Satellite Orbit:

Table of predicted SNOs for the next 14.0 days since TLE Epoch: 9/12/2020
Index Date Time (GOES-15) GOES-15 Lat,Lon TERRA Lat,Lon Distance(km) Time Diff (sec)
1 09/13/2020 18:54:03 0.05,-128.13 -0.33,-126.30 208.50 80
2 09/14/2020 07:18:07 -0.06,-128.19 -0.79,-131.49 375.64 80
3 09/16/2020 07:05:56 -0.06,-128.23 -0.12,-128.54 34.96 80
4 09/18/2020 06:51:04 -0.06,-128.27 0.49,-125.58 305.35 80
5 09/18/2020 19:14:58 0.07,-128.23 0.63,-130.73 284.58 80
6 09/20/2020 19:00:07 0.06,-128.27 -0.04,-127.78 55.22 80
7 09/22/2020 18:47:56 0.07,-128.29 -0.66,-124.82 394.45 80
8 09/23/2020 07:11:59 -0.08,-128.34 -0.46,-130.01 190.10 80
9 09/25/2020 06:57:08 -0.08,-128.36 0.22,-127.06 148.54 80
10 09/25/2020 19:21:03 0.09,-128.32 0.90,-132.21 441.95 80
